OpenBCM V1.08-5-g2f4a (Linux)

Packet Radio Mailbox

IZ3LSV

[San Dona' di P. JN]

 Login: GUEST





  
I0OJJ  > KEPS     17.05.25 11:00l 359 Lines 17045 Bytes #12 (0) @ AMSAT
BID : ORB25137.1
Read: GUEST
Subj: 2Line Orbital Elements 25137.AMSAT
Path: IZ3LSV<ED1ZAC<EA5URD
Sent: 250517/0030Z @:EA5URD.EAMU.ESP.EU #:12011 XFBB7.07 Bid:ORB25137.1

R:250517/0025Z @:EA2RCF.EAVI.ESP.EU #:64928 [Vitoria] $:ORB25137.1
R:250517/0025z @:I0OJJ.ITA.EU [Rome] obcm1.08-10-g596e
From: I0OJJ @ I0OJJ.ITA.EU (Gustavo)
To:   KEPS @ AMSAT
X-Info: This message was generated automatically


QST de W1STR

AMSAT Orbital Elements for Amateur Satellites in TLE Format
From Orbital Analysis Office
New England Sci-Tech STEM Education Center
Natick, MA May 17, 2025
To all radio amateurs


These element sets describe the orbits of various satellites 
in use by the amateur radio community. For details see:
www.amsat.org/keplerian-elements-formats/

A daily update of element sets is available at:
www.amsat.org/tle/daily-bulletin.txt
or without bulletin text:
www.amsat.org/tle/dailytle.txt


AO-07
1 07530U 74089B   25136.55829742 -.00000051  00000-0 -29273-4 0  9997
2 07530 101.9937 140.5662 0012302 166.2166 307.3409 12.53689062310818
UO-11
1 14781U 84021B   25136.48179920  .00001442  00000-0  15778-3 0  9995
2 14781  97.7529 103.3311 0009280  61.8248 298.3905 14.89315372198054
AO-27
1 22825U 93061C   25136.09157886  .00000117  00000-0  61921-4 0  9991
2 22825  98.7380 197.5230 0008472 177.0384 183.0850 14.30790853650213
FO-29
1 24278U 96046B   25136.28030177  .00000001  00000-0  35017-4 0  9994
2 24278  98.5785  33.3675 0350772  45.6805 317.2531 13.53247433419489
NOAA-15
1 25338U 98030A   25136.76088609  .00000218  00000-0  10737-3 0  9994
2 25338  98.5365 162.4638 0011405  72.1708 288.0716 14.26965726405004
GO-32
1 25397U 98043D   25136.87753327  .00000085  00000-0  57097-4 0  9994
2 25397  98.9692 115.5038 0000300 317.9736  42.1419 14.24309013395132
ISS
1 25544U 98067A   25136.86274537  .00007420  00000-0  13996-3 0  9993
2 25544  51.6352 102.2524 0002289 117.8022 242.3199 15.49562124510300
NO-44
1 26931U 01043C   25136.47545700  .00000126  00000-0  78348-4 0  9991
2 26931  67.0501 190.1622 0005854 273.9847  86.0585 14.31722696233657
SO-50
1 27607U 02058C   25136.52326188  .00001165  00000-0  16312-3 0  9998
2 27607  64.5529 274.7878 0053472 339.5661  20.3304 14.81562304205667
CO-55
1 27844U 03031E   25136.50856447  .00000334  00000-0  16472-3 0  9991
2 27844  98.6764 145.0925 0008383 255.5891 104.4358 14.23977493135216
CO-57
1 27848U 03031J   25136.44575130  .00000277  00000-0  14145-3 0  9996
2 27848  98.6792 145.0543 0008252 275.7944  84.2293 14.23314614134936
RS-22
1 27939U 03042A   25136.90296237  .00001179  00000-0  19472-3 0  9998
2 27939  98.3266 305.7863 0012738  86.1480  74.2429 14.72293430157349
NOAA-18
1 28654U 05018A   25136.83977463  .00000233  00000-0  14687-3 0  9990
2 28654  98.8420 216.5825 0014092 192.3675 167.7153 14.13598288 30390
CO-58
1 28895U 05043F   25136.37013717  .00001640  00000-0  27572-3 0  9997
2 28895  98.2467 280.4238 0014953  28.7749 331.4279 14.70934706 43384
CO-65
1 32785U 08021C   25136.85863182  .00005455  00000-0  39695-3 0  9998
2 32785  97.7850 107.8527 0008230 297.8790  62.1601 15.04197699925584
AAUSAT2
1 32788U 08021F   25135.94364140  .01438442  12952-2  20789-2 0  9991
2 32788  97.5833 134.9129 0009251 171.9564 188.1867 16.05571556929521
CO-66
1 32791U 08021J   25136.38672967  .00010909  00000-0  53768-3 0  9999
2 32791  97.7274 115.9020 0001739 226.6920 133.4168 15.18126910926822
RS-30
1 32953U 08025A   25136.74116805  .00000054  00000-0  31787-3 0  9994
2 32953  82.5035 241.9996 0020553  98.7688 261.5721 12.43164183770571
NOAA-19
1 33591U 09005A   25136.84238856  .00000209  00000-0  13530-3 0  9992
2 33591  98.9981 201.4122 0014739  73.0949 287.1838 14.13362306838752
SRMSAT
1 37841U 11058D   25136.55634248  .00000441  00000-0  95530-4 0  9997
2 37841  19.9729 299.9276 0011732 160.3677 244.4371 14.11428450701711
ZACUBE-1
1 39417U 13066B   25136.84998887  .00003777  00000-0  33143-3 0  9999
2 39417  97.7797  93.9969 0045634 129.5239 231.0030 14.96419258621366
Delfi-N3xt
1 39428U 13066N   25136.28896585  .00006682  00000-0  68424-3 0  9999
2 39428  97.8359  54.2183 0087273  80.6870 280.4202 14.87993137615460
GOMX-1
1 39430U 13066Q   25136.82723284  .00001477  00000-0  23702-3 0  9994
2 39430  97.6861 356.9477 0131121 268.5238  90.0945 14.67550935611923
LO-74
1 39440U 13066AA  25136.76780179  .00003146  00000-0  32307-3 0  9990
2 39440  97.8485  81.4980 0060486 258.4901 100.9520 14.89774796619090
AO-73
1 39444U 13066AE  25136.83295561  .00007197  00000-0  54313-3 0  9999
2 39444  97.7828  98.6615 0043406 106.2347 254.3659 15.01974204620614
DTUSAT-2
1 40030U 14033W   25136.40511166  .00006993  00000-0  45926-3 0  9995
2 40030  98.0540 107.0641 0010416 134.1058 226.1028 15.07928256592752
EO-80
1 40032U 14033Y   25136.42670786  .00005910  00000-0  38803-3 0  9997
2 40032  98.0427 106.7753 0010730  83.6861 276.5588 15.08005128592730
LILACSAT-2
1 40908U 15049K   25136.80679887  .00011018  00000-0  29322-3 0  9992
2 40908  97.5071 156.5877 0007659 237.4524 122.5982 15.38362572534570
IO-86
1 40931U 15052B   25038.81889873  .00001817  00000-0  15548-3 0  9993
2 40931   6.0001 108.1159 0012838 187.7041 172.2889 14.78568669506492
Horyu-4
1 41340U 16012D   25136.70019594  .00021156  00000-0  58344-3 0  9996
2 41340  30.9972 292.4071 0006639 159.2189 200.8727 15.35851482509112
Lapan A3
1 41603U 16040E   25136.88706156  .00003448  00000-0  12218-3 0  9999
2 41603  97.1375 142.4274 0010943   4.8216 355.3129 15.29695821494160
CAS-2T
1 41847U 16066G   25136.83550874  .00000897  00000-0  13805-3 0  9994
2 41847  98.4204 211.5033 0345192 250.2731 106.0924 14.43411552447593
CAS-4B
1 42759U 17034B   25136.87009004  .00055909  00000-0  65873-3 0  9997
2 42759  43.0072 102.8823 0018033 128.0399 232.2095 15.60362948438895
CAS-4A
1 42761U 17034D   25136.85703645  .00057503  00000-0  64936-3 0  9991
2 42761  43.0108 100.3526 0019339 132.5741 227.6758 15.61421457438911
TechnoSat
1 42829U 17042E   25136.45525553  .00002819  00000-0  22148-3 0  9990
2 42829  97.3933 306.3210 0014005   8.1643 351.9808 15.01584764427107
AO-91
1 43017U 17073E   25136.18437060  .00006971  00000-0  36255-3 0  9996
2 43017  97.5284   7.5776 0172412 249.5715 108.6925 15.04352758405543
S-Net D
1 43186U 18014G   25136.73586624  .00005304  00000-0  31606-3 0  9995
2 43186  97.5644  39.8872 0007764 315.9165  44.1446 15.11592069398776
S-Net B
1 43187U 18014H   25136.27756398  .00005263  00000-0  31384-3 0  9999
2 43187  97.5651  39.4043 0008382 311.2255  48.8252 15.11566948398703
S-Net A
1 43188U 18014J   25136.27294745  .00005190  00000-0  30934-3 0  9992
2 43188  97.5659  39.5465 0008247 312.4310  47.6222 15.11591735398702
S-Net C
1 43189U 18014K   25136.27989813  .00005211  00000-0  31068-3 0  9993
2 43189  97.5674  39.5637 0009699 302.5001  57.5291 15.11563725397253
Ten-Koh
1 43677U 18084G   25136.45598350  .00002128  00000-0  17417-3 0  9990
2 43677  98.0892 307.7551 0006074   4.6559 355.4719 15.00464234356624
PO-101
1 43678U 18084H   25136.81345856  .00002192  00000-0  18993-3 0  9993
2 43678  98.1015 312.0341 0008007  11.7404 348.4002 14.98220276356826
QO-100
1 43700U 18090A   25136.31210300  .00000158  00000-0  00000-0 0  9993
2 43700   0.0147 283.2981 0002103 164.4350 284.7268  1.00268832 23697
MinXSS-2
1 43758U 18099A   25136.12303229  .00015020  00000-0  60415-3 0  9990
2 43758  97.5023 202.0920 0011013 234.9909 125.0295 15.24947214353242
AO-95
1 43770U 18099N   25136.70494995  .00009168  00000-0  46934-3 0  9995
2 43770  97.4921 195.0600 0009074 297.3377  62.6932 15.16802718352933
RANGE-A
1 43773U 18099R   25136.13146493  .00004360  00000-0  28048-3 0  9997
2 43773  97.4498 185.2433 0009553 275.7203  84.2937 15.08865624352537
MOVE-II
1 43780U 18099Y   25136.52010524  .00159070  00000-0  14900-2 0  9993
2 43780  97.4662 210.4830 0006478 207.8805 152.2109 15.66697120354028
SNUSat 2
1 43782U 18099AA  25136.68793895  .00007464  00000-0  41117-3 0  9991
2 43782  97.4610 191.9878 0011075 230.0536 129.9724 15.14247079352889
SnugLite
1 43784U 18099AC  25136.08081684  .00008713  00000-0  44271-3 0  9995
2 43784  97.4422 190.9052 0002596 212.3842 147.7232 15.17109652352920
ITASat 1
1 43786U 18099AE  25136.13807593  .00005579  00000-0  32244-3 0  9992
2 43786  97.4578 191.0294 0012633 292.4760  67.5133 15.12625073352761
EAGLET 1
1 43790U 18099AJ  25136.14715959  .00003963  00000-0  25541-3 0  9999
2 43790  97.4778 191.0735 0010340 272.9479  87.0567 15.08846816352382
ESEO
1 43792U 18099AL  25136.69407800  .00001895  00000-0  14687-3 0  9995
2 43792  97.4461 185.1868 0011669 244.7727 115.2289 15.02506715352236
CSIM
1 43793U 18099AM  25136.75032074  .00153737  00000-0  14660-2 0  9993
2 43793  97.4827 212.9623 0007854 204.1701 155.9191 15.66255366353905
JO-97
1 43803U 18099AX  25136.10395807  .00011361  00000-0  52587-3 0  9997
2 43803  97.4672 195.4073 0006808 218.2888 141.7865 15.20267089353051
Suomi 100
1 43804U 18099AY  25136.07965917  .00008772  00000-0  43507-3 0  9993
2 43804  97.4740 194.7475 0011517 226.4375 133.5903 15.17905251352980
ISAT
1 43879U 18111D   25136.74557080  .00017864  00000-0  63590-3 0  9998
2 43879  97.5972  50.6277 0006434 286.5972  73.4561 15.28999824348036
UWE-4
1 43880U 18111E   25136.53370382  .00013627  00000-0  54449-3 0  9991
2 43880  97.5917  49.0539 0010120 300.9473  59.0770 15.25205599349965
Sparrow
1 43881U 18111F   25136.28849376  .00018847  00000-0  64755-3 0  9998
2 43881  97.6114  52.9464 0005813 344.9717  15.1349 15.30148185348077
Prox-1
1 44339U 19036A   25136.34082391  .00009844  00000-0  12535-2 0  9992
2 44339  23.9960 220.9596 0007567 150.7244 209.3677 14.79471960314421
SONATE
1 44400U 19038Q   25136.00921316  .00174633  00000-0  80151-3 0  9994
2 44400  97.6920 159.8664 0001142 346.0068  14.1169 15.83187776325679
